When you browse on this site, cookies collect data to enhance your experience and personalize the content and advertising you see.
Visit our Privacy Policy to learn more. By continuing to use the site, you agree to this use of cookies and data.
  • In Austria
  • List of Countries
  • For 7 days
  • Water Temperature
  • Satellite Maps
  • Weather Map
  • News
  • Weather Widgets
  • user-avatar
    Login

    Hourly Weather Ordino

    Today, 19 January, Saturday

    Time Temperature Precipitation Wind Pressure Humidity
    00:00 -4°C° 0 mm 0 mps 627 mmHg 72%
    01:00 -5°C° 0 mm 0 mps 627 mmHg 72%
    02:00 -4°C° 0 mm 1 mps 627 mmHg 72%
    03:00 -4°C° 0 mm 1 mps 626 mmHg 71%
    04:00 -4°C° 0 mm 1 mps 626 mmHg 71%
    05:00 -4°C° 0 mm 1 mps 626 mmHg 71%
    06:00 -4°C° 0 mm 1 mps 626 mmHg 71%
    07:00 -3°C° 0 mm 1 mps 627 mmHg 69%
    08:00 -2°C° 0 mm 0 mps 627 mmHg 66%
    09:00 -1°C° 0 mm 0 mps 628 mmHg 63%
    10:00 0°C° 0 mm 0 mps 628 mmHg 60%
    11:00 +3°C° 0 mm 1 mps 629 mmHg 57%
    12:00 +4°C° 0 mm 1 mps 629 mmHg 54%
    13:00 +4°C° 0 mm 1 mps 628 mmHg 55%
    14:00 +3°C° 0 mm 1 mps 628 mmHg 57%
    15:00 +3°C° 0 mm 1 mps 627 mmHg 58%
    16:00 +1°C° 0 mm 1 mps 626 mmHg 65%
    17:00 0°C° 0 mm 1 mps 626 mmHg 72%
    18:00 -2°C° 0 mm 1 mps 625 mmHg 79%
    19:00 -2°C° 0 mm 1 mps 625 mmHg 79%
    20:00 -2°C° 0 mm 1 mps 625 mmHg 79%
    21:00 -2°C° 0 mm 1 mps 625 mmHg 78%
    22:00 -2°C° 0 mm 1 mps 625 mmHg 78%
    23:00 -1°C° 0 mm 1 mps 625 mmHg 77%

    Tomorrow, 20 January, Sunday

    Time Temperature Precipitation Wind Pressure Humidity
    00:00 -1°C° 0 mm 1 mps 625 mmHg 77%
    01:00 -1°C° 0 mm 1 mps 625 mmHg 77%
    02:00 -1°C° 0 mm 1 mps 625 mmHg 77%
    03:00 -1°C° 0 mm 1 mps 625 mmHg 77%
    04:00 -1°C° 0 mm 1 mps 625 mmHg 76%
    05:00 -1°C° 0 mm 1 mps 625 mmHg 76%
    06:00 -1°C° 0 mm 1 mps 625 mmHg 75%
    07:00 -1°C° 0 mm 1 mps 626 mmHg 72%
    08:00 0°C° 0 mm 1 mps 626 mmHg 69%
    09:00 0°C° 0 mm 1 mps 627 mmHg 67%
    10:00 +1°C° 0 mm 1 mps 627 mmHg 62%
    11:00 +3°C° 0 mm 1 mps 628 mmHg 58%
    12:00 +4°C° 0 mm 1 mps 628 mmHg 53%
    13:00 +3°C° 0 mm 1 mps 628 mmHg 57%
    14:00 +2°C° 0 mm 2 mps 628 mmHg 62%
    15:00 +2°C° 0 mm 2 mps 627 mmHg 66%
    16:00 +1°C° 0.1 mm 1 mps 627 mmHg 74%
    17:00 0°C° 0.1 mm 1 mps 627 mmHg 81%
    18:00 -2°C° 0.1 mm 1 mps 627 mmHg 89%
    19:00 -2°C° 0 mm 1 mps 627 mmHg 87%
    20:00 -2°C° 0 mm 1 mps 627 mmHg 85%
    21:00 -2°C° 0 mm 1 mps 628 mmHg 83%
    22:00 -2°C° 0.2 mm 1 mps 628 mmHg 84%
    23:00 -1°C° 0.2 mm 1 mps 628 mmHg 86%

    Day after tomorrow, 21 January, Monday

    Time Temperature Precipitation Wind Pressure Humidity
    00:00 -1°C° 0.2 mm 1 mps 628 mmHg 87%
    01:00 -1°C° 0.7 mm 1 mps 628 mmHg 88%
    02:00 -1°C° 0.7 mm 1 mps 628 mmHg 89%
    03:00 -1°C° 0.7 mm 1 mps 628 mmHg 90%
    04:00 -3°C° 0.4 mm 2 mps 629 mmHg 90%
    05:00 -3°C° 0.4 mm 2 mps 629 mmHg 90%
    06:00 -3°C° 0.4 mm 2 mps 629 mmHg 90%
    07:00 -3°C° 0.4 mm 2 mps 629 mmHg 89%
    08:00 -3°C° 0.4 mm 2 mps 630 mmHg 87%
    09:00 -3°C° 0.4 mm 2 mps 630 mmHg 86%
    10:00 -2°C° 0.2 mm 2 mps 630 mmHg 82%
    11:00 -1°C° 0.2 mm 3 mps 631 mmHg 77%
    12:00 -1°C° 0.2 mm 3 mps 631 mmHg 73%
    13:00 -1°C° 0.1 mm 3 mps 631 mmHg 73%
    14:00 -1°C° 0.1 mm 3 mps 631 mmHg 74%
    15:00 -2°C° 0.1 mm 3 mps 630 mmHg 74%
    16:00 -4°C° 0.1 mm 3 mps 630 mmHg 79%
    17:00 -5°C° 0.1 mm 3 mps 630 mmHg 84%
    18:00 -5°C° 0.1 mm 2 mps 630 mmHg 88%
    19:00 -5°C° 0 mm 2 mps 630 mmHg 89%
    20:00 -6°C° 0 mm 2 mps 630 mmHg 90%
    21:00 -6°C° 0 mm 2 mps 631 mmHg 90%
    22:00 -7°C° 0 mm 2 mps 630 mmHg 90%
    23:00 -7°C° 0 mm 2 mps 630 mmHg 90%

    22 January, Tuesday

    Time Temperature Precipitation Wind Pressure Humidity
    00:00 -8°C° 0 mm 2 mps 630 mmHg 90%
    01:00 -8°C° 0 mm 2 mps 629 mmHg 84%
    02:00 -9°C° 0 mm 2 mps 629 mmHg 78%
    03:00 -9°C° 0 mm 2 mps 628 mmHg 71%
    04:00 -9°C° 0 mm 2 mps 628 mmHg 66%
    05:00 -9°C° 0 mm 2 mps 628 mmHg 60%
    06:00 -9°C° 0 mm 2 mps 628 mmHg 54%
    07:00 -7°C° 0 mm 2 mps 628 mmHg 53%
    08:00 -4°C° 0 mm 1 mps 628 mmHg 51%
    09:00 -2°C° 0 mm 1 mps 629 mmHg 49%
    10:00 0°C° 0 mm 1 mps 628 mmHg 48%
    11:00 +1°C° 0 mm 1 mps 628 mmHg 46%
    12:00 +3°C° 0 mm 1 mps 628 mmHg 45%
    13:00 +2°C° 0.5 mm 1 mps 627 mmHg 56%
    14:00 +1°C° 0.5 mm 1 mps 626 mmHg 66%
    15:00 -2°C° 0.5 mm 2 mps 625 mmHg 77%
    16:00 -2°C° 0.6 mm 2 mps 624 mmHg 80%
    17:00 -3°C° 0.6 mm 2 mps 624 mmHg 84%
    18:00 -4°C° 0.6 mm 2 mps 623 mmHg 87%
    19:00 -4°C° 0.3 mm 2 mps 623 mmHg 89%
    20:00 -4°C° 0.3 mm 2 mps 622 mmHg 90%
    21:00 -4°C° 0.3 mm 2 mps 622 mmHg 92%
    22:00 -4°C° 1.1 mm 2 mps 621 mmHg 93%
    23:00 -5°C° 1.1 mm 2 mps 621 mmHg 93%

    23 January, Wednesday

    Time Temperature Precipitation Wind Pressure Humidity
    00:00 -5°C° 1.1 mm 2 mps 620 mmHg 94%
    01:00 -6°C° 1.6 mm 3 mps 620 mmHg 94%
    02:00 -6°C° 1.6 mm 3 mps 619 mmHg 94%
    03:00 -7°C° 1.6 mm 3 mps 619 mmHg 94%
    04:00 -7°C° 1.2 mm 3 mps 618 mmHg 94%
    05:00 -7°C° 1.2 mm 3 mps 618 mmHg 94%
    06:00 -7°C° 1.2 mm 3 mps 617 mmHg 94%
    07:00 -7°C° 1.5 mm 3 mps 617 mmHg 94%
    08:00 -6°C° 1.5 mm 2 mps 617 mmHg 94%
    09:00 -6°C° 1.5 mm 2 mps 616 mmHg 95%
    10:00 -6°C° 1.6 mm 2 mps 616 mmHg 94%
    11:00 -6°C° 1.6 mm 2 mps 615 mmHg 93%
    12:00 -6°C° 1.6 mm 2 mps 614 mmHg 93%
    13:00 -8°C° 1.5 mm 3 mps 614 mmHg 92%
    14:00 -8°C° 1.5 mm 3 mps 613 mmHg 92%
    15:00 -9°C° 1.5 mm 4 mps 612 mmHg 92%
    16:00 -10°C° 1.4 mm 4 mps 613 mmHg 93%
    17:00 -11°C° 1.4 mm 5 mps 613 mmHg 94%
    18:00 -12°C° 1.4 mm 5 mps 613 mmHg 95%
    19:00 -12°C° 0.9 mm 5 mps 613 mmHg 95%
    20:00 -13°C° 0.9 mm 5 mps 613 mmHg 95%
    21:00 -13°C° 0.9 mm 5 mps 613 mmHg 95%
    22:00 -13°C° 0.7 mm 5 mps 614 mmHg 94%
    23:00 -14°C° 0.7 mm 5 mps 614 mmHg 94%

    24 January, Thursday

    Time Temperature Precipitation Wind Pressure Humidity
    00:00 -15°C° 0.7 mm 6 mps 614 mmHg 94%
    01:00 -15°C° 0.6 mm 6 mps 614 mmHg 94%
    02:00 -15°C° 0.6 mm 7 mps 614 mmHg 94%
    03:00 -17°C° 0.6 mm 8 mps 614 mmHg 94%
    04:00 -16°C° 0.5 mm 8 mps 614 mmHg 93%
    05:00 -16°C° 0.5 mm 9 mps 614 mmHg 91%
    06:00 -16°C° 0.5 mm 9 mps 614 mmHg 90%
    07:00 -16°C° 0.4 mm 9 mps 615 mmHg 89%
    08:00 -17°C° 0.4 mm 10 mps 615 mmHg 88%
    09:00 -15°C° 0.4 mm 10 mps 615 mmHg 87%
    10:00 -15°C° 0.1 mm 10 mps 616 mmHg 85%
    11:00 -14°C° 0.1 mm 10 mps 616 mmHg 82%
    12:00 -14°C° 0.1 mm 10 mps 616 mmHg 80%
    13:00 -14°C° 0 mm 9 mps 615 mmHg 79%
    14:00 -14°C° 0 mm 9 mps 615 mmHg 77%
    15:00 -13°C° 0 mm 8 mps 615 mmHg 76%
    16:00 -13°C° 0 mm 7 mps 615 mmHg 80%
    17:00 -14°C° 0 mm 7 mps 615 mmHg 84%
    18:00 -15°C° 0 mm 6 mps 615 mmHg 89%
    19:00 -15°C° 0.1 mm 7 mps 615 mmHg 88%
    20:00 -14°C° 0.1 mm 7 mps 615 mmHg 88%
    21:00 -15°C° 0.1 mm 8 mps 616 mmHg 88%
    22:00 -15°C° 0.1 mm 8 mps 616 mmHg 89%
    23:00 -15°C° 0.1 mm 7 mps 616 mmHg 90%
    Show more